Weather History for KFMN - August, 2013

Change the Weather History Date:

Saturday, August 17, 2013

  Actual Average Record
Temperature  
Mean Temperature 78 °F -  
Max Temperature 95 °F 86 °F 98 °F (2002)
Min Temperature 61 °F 57 °F 52 °F (1987)
Cooling Degree Days 13    
Growing Degree Days 28 (Base 50)    
Moisture  
Dew Point 41 °F    
Average Humidity 29    
Maximum Humidity 44    
Minimum Humidity 9    
Precipitation  
Precipitation 0.00 in - - ()
Sea Level Pressure  
Sea Level Pressure 30.01 in    
Wind  
Wind Speed 8 mph (North)    
Max Wind Speed 22 mph    
Max Gust Speed 36 mph    
Visibility 10 miles    
Events Thunderstorm    
Averages and records for this station are not official NWS values.
T = Trace of Precipitation, MM = Missing Value Source: NWS Daily Summary

Daily Weather History Graph

Daily Weather History Graph

Search for Another Location

Airport or City:

Trip Planner

Search our weather history database for the weather conditions in past years. The results will help you decide how hot, cold, wet, or windy it might be!

Date:

Astronomy

Aug. 17, 2013 Rise Set
Actual Time 6:32 AM MDT 8:01 PM MDT
Civil Twilight 6:04 AM MDT 8:28 PM MDT
Nautical Twilight 5:31 AM MDT 9:01 PM MDT
Astronomical Twilight 4:57 AM MDT 9:35 PM MDT
Moon 5:16 PM MDT (8/17) 2:41 AM MDT (8/17)
Length of Visible Light 14h 23m
Length of Day
13h 29m
Waxing Gibbous, 85% of the Moon is Illuminated
Aug 17
Waxing Gibbous
Aug 20
Full
Aug 28
Last Quarter
Sep 5
New
Sep 12
First Quarter

Hourly Weather History & Observations

Time (MDT) Temp. Dew Point Humidity Pressure Visibility Wind Dir Wind Speed Gust Speed Precip Events Conditions
12:53 AM 66.0 °F 39.0 °F 37% 30.00 in 10.0 mi NNE 6.9 mph - N/A   Clear
1:53 AM 64.0 °F 37.0 °F 37% 30.00 in 10.0 mi North 6.9 mph - N/A   Clear
2:53 AM 62.1 °F 39.0 °F 43% 30.00 in 10.0 mi NNE 5.8 mph - N/A   Clear
3:53 AM 64.9 °F 42.1 °F 43% 29.99 in 10.0 mi East 8.1 mph - N/A   Clear
4:53 AM 63.0 °F 39.0 °F 41% 30.00 in 10.0 mi East 8.1 mph - N/A   Clear
5:53 AM 61.0 °F 39.0 °F 44% 30.03 in 10.0 mi ENE 4.6 mph - N/A   Clear
6:53 AM 62.1 °F 39.9 °F 44% 30.04 in 10.0 mi ENE 5.8 mph - N/A   Clear
7:53 AM 66.0 °F 39.0 °F 37% 30.06 in 10.0 mi East 9.2 mph - N/A   Clear
8:53 AM 71.1 °F 39.9 °F 32% 30.07 in 10.0 mi East 6.9 mph - N/A   Clear
9:53 AM 77.0 °F 42.1 °F 29% 30.06 in 10.0 mi ESE 5.8 mph - N/A   Clear
10:53 AM 81.0 °F 43.0 °F 26% 30.05 in 10.0 mi SE 4.6 mph - N/A   Clear
11:53 AM 84.9 °F 39.9 °F 20% 30.04 in 10.0 mi Calm Calm - N/A   Clear
12:53 PM 90.0 °F 39.9 °F 17% 30.01 in 10.0 mi NW 5.8 mph - N/A   Clear
1:53 PM 91.0 °F 39.9 °F 17% 29.96 in 10.0 mi WSW 9.2 mph - N/A   Clear
2:53 PM 91.9 °F 39.9 °F 16% 29.96 in 10.0 mi West 21.9 mph 32.2 mph N/A Thunderstorm Clear
3:15 PM 87.8 °F 44.6 °F 22% 30.17 in 10.0 mi NNW 18.4 mph 35.7 mph N/A Thunderstorm Scattered Clouds
3:53 PM 81.0 °F 45.0 °F 28% 30.00 in 10.0 mi NNE 16.1 mph 26.5 mph 0.00 in   Partly Cloudy
4:53 PM 82.0 °F 44.1 °F 26% 30.00 in 10.0 mi North 19.6 mph 23.0 mph N/A   Clear
5:53 PM 81.0 °F 42.1 °F 25% 29.98 in 10.0 mi North 12.7 mph - N/A   Clear
6:53 PM 84.9 °F 41.0 °F 21% 29.95 in 10.0 mi West 5.8 mph - N/A   Clear
7:53 PM 81.0 °F 41.0 °F 24% 29.96 in 10.0 mi NW 9.2 mph - N/A   Clear
8:53 PM 78.1 °F 42.1 °F 28% 29.99 in 10.0 mi West 19.6 mph 26.5 mph N/A   Clear
9:53 PM 75.0 °F 46.0 °F 36% 30.00 in 10.0 mi WNW 16.1 mph 24.2 mph N/A   Clear
10:53 PM 72.0 °F 46.9 °F 41% 30.02 in 10.0 mi WSW 9.2 mph - N/A   Clear
11:53 PM 71.1 °F 46.9 °F 42% 30.02 in 10.0 mi West 6.9 mph - N/A   Clear